Time,TemperatureF,DewpointF,PressureIn,WindDirection,WindDirectionDegrees,WindSpeedMPH,WindSpeedGustMPH,Humidity,HourlyPrecipIn,Conditions,Clouds,dailyrainin,SolarRadiationWatts/m^2,SoftwareType,DateUTC
2013-07-01 00:00:00,70.4,-99.9,29.94,SSW,196,6.0,6.0,0,0.00,,,0.00,0,Wunderground v.1.15,2013-07-01 04:00:00,
2013-07-01 00:05:00,70.4,-99.9,29.94,SSW,196,6.0,7.0,0,0.00,,,0.00,0,Wunderground v.1.15,2013-07-01 04:05:00,
2013-07-01 00:10:00,70.4,-99.9,29.94,SSW,195,6.0,8.0,0,0.00,,,0.00,0,Wunderground v.1.15,2013-07-01 04:10:00,
2013-07-01 00:20:00,70.3,-99.9,29.94,South,190,5.0,6.0,0,0.00,,,0.00,0,Wunderground v.1.15,2013-07-01 04:20:00,
2013-07-01 00:30:00,70.4,-99.9,29.94,SW,224,4.0,5.0,0,0.00,,,0.00,0,Wunderground v.1.15,2013-07-01 04:30:00,
2013-07-01 00:35:00,70.5,-99.9,29.94,SSW,198,3.0,5.0,0,0.00,,,0.00,0,Wunderground v.1.15,2013-07-01 04:35:00,
2013-07-01 00:45:00,70.5,-99.9,29.94,SSW,194,4.0,5.0,0,0.00,,,0.00,0,Wunderground v.1.15,2013-07-01 04:45:00,
2013-07-01 00:55:00,70.5,-99.9,29.94,South,190,5.0,5.0,0,0.00,,,0.00,0,Wunderground v.1.15,2013-07-01 04:55:00,
2013-07-01 01:00:00,70.6,-99.9,29.94,South,189,5.0,5.0,0,0.00,,,0.00,0,Wunderground v.1.15,2013-07-01 05:00:00,
2013-07-01 01:10:00,70.6,-99.9,29.94,South,191,4.0,4.0,0,0.00,,,0.00,0,Wunderground v.1.15,2013-07-01 05:10:00,
2013-07-01 01:15:00,70.6,-99.9,29.94,SSW,209,4.0,4.0,0,0.00,,,0.00,0,Wunderground v.1.15,2013-07-01 05:15:00,
2013-07-01 01:20:00,70.6,-99.9,29.94,SSW,204,4.0,5.0,0,0.00,,,0.00,0,Wunderground v.1.15,2013-07-01 05:20:00,
2013-07-01 01:30:00,70.5,-99.9,29.95,SSW,196,3.0,3.0,0,0.00,,,0.00,0,Wunderground v.1.15,2013-07-01 05:30:00,
2013-07-01 01:40:00,70.6,-99.9,29.95,SSW,196,4.0,5.0,0,0.00,,,0.00,0,Wunderground v.1.15,2013-07-01 05:40:00,
2013-07-01 01:45:00,70.7,-99.9,29.95,SSW,197,4.0,5.0,0,0.00,,,0.00,0,Wunderground v.1.15,2013-07-01 05:45:00,
2013-07-01 01:55:00,70.8,-99.9,29.95,South,180,5.0,7.0,0,0.00,,,0.00,0,Wunderground v.1.15,2013-07-01 05:55:00,
2013-07-01 02:05:00,70.8,-99.9,29.95,South,177,7.0,7.0,0,0.00,,,0.00,0,Wunderground v.1.15,2013-07-01 06:05:00,
2013-07-01 02:15:00,70.7,-99.9,29.94,South,188,7.0,7.0,0,0.00,,,0.00,0,Wunderground v.1.15,2013-07-01 06:15:00,
2013-07-01 02:20:00,70.7,-99.9,29.94,South,185,6.0,6.0,0,0.00,,,0.00,0,Wunderground v.1.15,2013-07-01 06:20:00,
2013-07-01 02:30:00,70.6,-99.9,29.94,South,169,7.0,7.0,0,0.00,,,0.00,0,Wunderground v.1.15,2013-07-01 06:30:00,
2013-07-01 02:40:00,70.6,-99.9,29.94,South,171,7.0,8.0,0,0.00,,,0.00,0,Wunderground v.1.15,2013-07-01 06:40:00,
2013-07-01 02:50:00,70.6,-99.9,29.94,South,178,7.0,7.0,0,0.00,,,0.00,0,Wunderground v.1.15,2013-07-01 06:50:00,
2013-07-01 03:00:00,70.6,-99.9,29.94,SSE,162,7.0,7.0,0,0.00,,,0.00,0,Wunderground v.1.15,2013-07-01 07:00:00,
2013-07-01 03:10:00,70.3,-99.9,29.94,SSE,165,7.0,8.0,0,0.00,,,0.00,0,Wunderground v.1.15,2013-07-01 07:10:00,
2013-07-01 03:15:00,70.2,-99.9,29.94,SSE,168,7.0,8.0,0,0.00,,,0.00,0,Wunderground v.1.15,2013-07-01 07:15:00,
2013-07-01 03:25:00,70.2,-99.9,29.94,South,178,8.0,8.0,0,0.00,,,0.00,0,Wunderground v.1.15,2013-07-01 07:25:00,
2013-07-01 03:30:00,70.2,-99.9,29.94,South,173,8.0,8.0,0,0.00,,,0.00,0,Wunderground v.1.15,2013-07-01 07:30:00,
2013-07-01 03:35:00,70.2,-99.9,29.93,SSE,168,8.0,8.0,0,0.00,,,0.00,0,Wunderground v.1.15,2013-07-01 07:35:00,
2013-07-01 03:45:00,70.1,-99.9,29.94,South,171,8.0,10.0,0,0.00,,,0.00,0,Wunderground v.1.15,2013-07-01 07:45:00,
2013-07-01 03:55:00,70.0,-99.9,29.94,SSE,167,8.0,9.0,0,0.00,,,0.00,0,Wunderground v.1.15,2013-07-01 07:55:00,
2013-07-01 04:00:00,70.0,-99.9,29.94,SSE,163,8.0,8.0,0,0.00,,,0.00,0,Wunderground v.1.15,2013-07-01 08:00:00,
2013-07-01 04:10:00,69.9,-99.9,29.93,SSE,159,8.0,8.0,0,0.00,,,0.00,0,Wunderground v.1.15,2013-07-01 08:10:00,
2013-07-01 04:15:00,69.7,-99.9,29.93,SSE,162,8.0,8.0,0,0.00,,,0.00,0,Wunderground v.1.15,2013-07-01 08:15:00,
2013-07-01 04:20:00,69.7,-99.9,29.93,South,170,8.0,8.0,0,0.00,,,0.00,0,Wunderground v.1.15,2013-07-01 08:20:00,
2013-07-01 04:30:00,69.9,-99.9,29.93,South,169,9.0,10.0,0,0.00,,,0.00,0,Wunderground v.1.15,2013-07-01 08:30:00,
2013-07-01 04:40:00,69.9,-99.9,29.93,SSE,166,9.0,9.0,0,0.00,,,0.00,0,Wunderground v.1.15,2013-07-01 08:40:00,
2013-07-01 04:50:00,70.0,-99.9,29.93,SSE,163,9.0,9.0,0,0.00,,,0.00,0,Wunderground v.1.15,2013-07-01 08:50:00,
2013-07-01 05:00:00,70.0,-99.9,29.94,South,169,9.0,9.0,0,0.00,,,0.00,0,Wunderground v.1.15,2013-07-01 09:00:00,
2013-07-01 05:10:00,70.3,-99.9,29.94,South,176,8.0,9.0,0,0.00,,,0.00,0,Wunderground v.1.15,2013-07-01 09:10:00,
2013-07-01 05:20:00,70.4,-99.9,29.94,South,187,8.0,9.0,0,0.00,,,0.00,0,Wunderground v.1.15,2013-07-01 09:20:00,
2013-07-01 05:30:00,70.4,-99.9,29.94,South,169,9.0,10.0,0,0.00,,,0.00,0,Wunderground v.1.15,2013-07-01 09:30:00,
2013-07-01 05:40:00,70.3,-99.9,29.95,South,178,11.0,11.0,0,0.00,,,0.00,9,Wunderground v.1.15,2013-07-01 09:40:00,
2013-07-01 05:45:00,70.2,-99.9,29.95,South,181,10.0,11.0,0,0.00,,,0.00,11,Wunderground v.1.15,2013-07-01 09:45:00,
2013-07-01 05:55:00,70.0,-99.9,29.95,South,180,9.0,11.0,0,0.00,,,0.00,16,Wunderground v.1.15,2013-07-01 09:55:00,
2013-07-01 06:00:00,70.1,-99.9,29.96,South,177,9.0,9.0,0,0.00,,,0.00,16,Wunderground v.1.15,2013-07-01 10:00:00,
2013-07-01 06:10:00,70.1,-99.9,29.95,South,180,9.0,9.0,0,0.00,,,0.00,23,Wunderground v.1.15,2013-07-01 10:10:00,
2013-07-01 06:20:00,70.3,-99.9,29.95,South,185,9.0,9.0,0,0.00,,,0.00,25,Wunderground v.1.15,2013-07-01 10:20:00,
2013-07-01 06:30:00,70.8,-99.9,29.96,South,178,10.0,10.0,0,0.00,,,0.00,16,Wunderground v.1.15,2013-07-01 10:30:00,
2013-07-01 06:40:00,70.6,-99.9,29.96,South,186,12.0,12.0,0,0.00,,,0.00,18,Wunderground v.1.15,2013-07-01 10:40:00,
2013-07-01 06:50:00,70.5,-99.9,29.96,South,185,11.0,11.0,0,0.00,,,0.00,23,Wunderground v.1.15,2013-07-01 10:50:00,
2013-07-01 07:00:00,70.3,-99.9,29.96,South,185,10.0,10.0,0,0.00,,,0.00,65,Wunderground v.1.15,2013-07-01 11:00:00,
2013-07-01 07:10:00,70.4,-99.9,29.96,South,190,9.0,9.0,0,0.00,,,0.00,30,Wunderground v.1.15,2013-07-01 11:10:00,
2013-07-01 07:15:00,70.5,-99.9,29.96,South,176,9.0,10.0,0,0.00,,,0.00,35,Wunderground v.1.15,2013-07-01 11:15:00,
2013-07-01 07:25:00,70.5,-99.9,29.97,South,177,10.0,11.0,0,0.00,,,0.00,40,Wunderground v.1.15,2013-07-01 11:25:00,
2013-07-01 07:35:00,70.1,-99.9,29.97,South,183,12.0,13.0,0,0.00,,,0.00,42,Wunderground v.1.15,2013-07-01 11:35:00,
2013-07-01 07:45:00,70.2,-99.9,29.97,South,180,12.0,12.0,0,0.00,,,0.00,77,Wunderground v.1.15,2013-07-01 11:45:00,
2013-07-01 07:55:00,70.5,-99.9,29.97,SSW,192,11.0,13.0,0,0.00,,,0.00,109,Wunderground v.1.15,2013-07-01 11:55:00,
2013-07-01 08:05:00,70.7,-99.9,29.97,South,190,10.0,12.0,0,0.00,,,0.00,56,Wunderground v.1.15,2013-07-01 12:05:00,
2013-07-01 08:15:00,70.9,-99.9,29.98,South,184,9.0,10.0,0,0.00,,,0.00,116,Wunderground v.1.15,2013-07-01 12:15:00,
2013-07-01 08:20:00,71.1,-99.9,29.98,South,186,9.0,10.0,0,0.00,,,0.00,167,Wunderground v.1.15,2013-07-01 12:20:00,
2013-07-01 08:30:00,71.3,-99.9,29.98,SSW,193,9.0,11.0,0,0.00,,,0.00,160,Wunderground v.1.15,2013-07-01 12:30:00,
2013-07-01 08:40:00,71.4,-99.9,29.98,SSW,192,10.0,10.0,0,0.00,,,0.00,227,Wunderground v.1.15,2013-07-01 12:40:00,
2013-07-01 08:50:00,71.4,-99.9,29.99,South,186,11.0,11.0,0,0.00,,,0.00,162,Wunderground v.1.15,2013-07-01 12:50:00,
2013-07-01 09:00:00,71.3,-99.9,29.98,South,187,10.0,10.0,0,0.00,,,0.00,253,Wunderground v.1.15,2013-07-01 13:00:00,
2013-07-01 09:10:00,71.2,-99.9,29.99,South,191,10.0,11.0,0,0.00,,,0.00,172,Wunderground v.1.15,2013-07-01 13:10:00,
2013-07-01 09:20:00,71.3,-99.9,29.99,South,185,10.0,12.0,0,0.00,,,0.00,327,Wunderground v.1.15,2013-07-01 13:20:00,
2013-07-01 09:30:00,71.3,-99.9,29.99,SSW,193,9.0,9.0,0,0.00,,,0.00,220,Wunderground v.1.15,2013-07-01 13:30:00,
2013-07-01 09:40:00,71.2,-99.9,29.99,South,185,9.0,10.0,0,0.00,,,0.00,188,Wunderground v.1.15,2013-07-01 13:40:00,
2013-07-01 09:50:00,71.2,-99.9,29.99,South,190,9.0,9.0,0,0.00,,,0.00,192,Wunderground v.1.15,2013-07-01 13:50:00,
2013-07-01 10:00:00,71.4,-99.9,29.99,SSW,192,7.0,8.0,0,0.00,,,0.00,299,Wunderground v.1.15,2013-07-01 14:00:00,
2013-07-01 10:10:00,71.8,-99.9,29.99,South,184,9.0,9.0,0,0.00,,,0.00,251,Wunderground v.1.15,2013-07-01 14:10:00,
2013-07-01 10:20:00,71.8,-99.9,29.99,SSW,192,10.0,13.0,0,0.00,,,0.00,188,Wunderground v.1.15,2013-07-01 14:20:00,
2013-07-01 10:25:00,71.7,-99.9,30.00,South,184,10.0,13.0,0,0.00,,,0.00,185,Wunderground v.1.15,2013-07-01 14:25:00,
2013-07-01 10:35:00,71.8,-99.9,30.00,South,178,10.0,10.0,0,0.00,,,0.00,257,Wunderground v.1.15,2013-07-01 14:35:00,
2013-07-01 10:45:00,71.7,-99.9,30.00,South,182,9.0,9.0,0,0.00,,,0.00,287,Wunderground v.1.15,2013-07-01 14:45:00,
2013-07-01 10:55:00,71.5,-99.9,30.00,South,182,9.0,9.0,0,0.00,,,0.00,213,Wunderground v.1.15,2013-07-01 14:55:00,
2013-07-01 11:05:00,71.8,-99.9,30.00,South,186,9.0,11.0,0,0.00,,,0.00,267,Wunderground v.1.15,2013-07-01 15:05:00,
2013-07-01 11:15:00,72.0,-99.9,30.00,SSW,197,10.0,10.0,0,0.00,,,0.00,281,Wunderground v.1.15,2013-07-01 15:15:00,
2013-07-01 11:25:00,72.1,-99.9,30.00,South,180,9.0,10.0,0,0.00,,,0.00,411,Wunderground v.1.15,2013-07-01 15:25:00,
2013-07-01 11:35:00,72.2,-99.9,30.00,SSW,194,8.0,8.0,0,0.00,,,0.00,367,Wunderground v.1.15,2013-07-01 15:35:00,
2013-07-01 11:45:00,72.3,-99.9,30.01,South,184,9.0,10.0,0,0.00,,,0.00,278,Wunderground v.1.15,2013-07-01 15:45:00,
2013-07-01 11:55:00,72.5,-99.9,30.01,South,186,11.0,11.0,0,0.00,,,0.00,510,Wunderground v.1.15,2013-07-01 15:55:00,
2013-07-01 12:05:00,73.1,-99.9,30.01,SSW,193,10.0,11.0,0,0.00,,,0.00,478,Wunderground v.1.15,2013-07-01 16:05:00,
2013-07-01 12:10:00,73.2,-99.9,30.01,South,173,10.0,10.0,0,0.00,,,0.00,438,Wunderground v.1.15,2013-07-01 16:10:00,
2013-07-01 12:15:00,73.4,-99.9,30.01,South,191,11.0,11.0,0,0.00,,,0.00,506,Wunderground v.1.15,2013-07-01 16:15:00,
2013-07-01 12:25:00,74.0,-99.9,30.01,SSW,192,12.0,13.0,0,0.00,,,0.00,441,Wunderground v.1.15,2013-07-01 16:25:00,
2013-07-01 12:35:00,74.3,-99.9,30.01,South,189,12.0,12.0,0,0.00,,,0.00,329,Wunderground v.1.15,2013-07-01 16:35:00,
2013-07-01 12:40:00,74.4,-99.9,30.01,South,184,11.0,12.0,0,0.00,,,0.00,612,Wunderground v.1.15,2013-07-01 16:40:00,
2013-07-01 12:45:00,74.5,-99.9,30.01,South,179,12.0,12.0,0,0.00,,,0.00,780,Wunderground v.1.15,2013-07-01 16:45:00,
2013-07-01 12:55:00,74.9,-99.9,30.01,South,178,12.0,13.0,0,0.00,,,0.00,489,Wunderground v.1.15,2013-07-01 16:55:00,
2013-07-01 13:05:00,74.5,-99.9,30.02,South,180,12.0,16.0,0,0.00,,,0.00,485,Wunderground v.1.15,2013-07-01 17:05:00,
2013-07-01 13:15:00,74.3,-99.9,30.02,SSW,194,12.0,16.0,0,0.00,,,0.00,455,Wunderground v.1.15,2013-07-01 17:15:00,
2013-07-01 13:25:00,74.8,-99.9,30.02,South,180,12.0,13.0,0,0.00,,,0.00,759,Wunderground v.1.15,2013-07-01 17:25:00,
2013-07-01 13:30:00,75.3,-99.9,30.01,SSW,192,12.0,13.0,0,0.00,,,0.00,722,Wunderground v.1.15,2013-07-01 17:30:00,
2013-07-01 13:35:00,75.5,-99.9,30.01,South,183,12.0,13.0,0,0.00,,,0.00,826,Wunderground v.1.15,2013-07-01 17:35:00,
2013-07-01 13:45:00,75.8,-99.9,30.01,South,189,11.0,13.0,0,0.00,,,0.00,350,Wunderground v.1.15,2013-07-01 17:45:00,
2013-07-01 13:50:00,75.6,-4.9,30.01,SSW,207,11.0,14.0,4,0.00,,,0.00,269,Wunderground v.1.15,2013-07-01 17:50:00,
2013-07-01 14:00:00,75.1,-32.1,30.01,South,180,11.0,11.0,1,0.00,,,0.00,432,Wunderground v.1.15,2013-07-01 18:00:00,
2013-07-01 14:10:00,75.5,-99.9,30.01,South,190,12.0,13.0,0,0.00,,,0.00,874,Wunderground v.1.15,2013-07-01 18:10:00,
2013-07-01 14:15:00,76.0,-99.9,30.01,South,186,12.0,14.0,0,0.00,,,0.00,513,Wunderground v.1.15,2013-07-01 18:15:00,
2013-07-01 14:25:00,75.9,-10.6,30.00,South,190,14.0,16.0,3,0.00,,,0.00,772,Wunderground v.1.15,2013-07-01 18:25:00,
2013-07-01 14:35:00,76.6,4.5,30.01,NNW,331,11.0,12.0,6,0.00,,,0.00,814,Wunderground v.1.15,2013-07-01 18:35:00,
2013-07-01 14:45:00,76.2,17.8,30.01,SSW,193,11.0,14.0,11,0.00,,,0.00,519,Wunderground v.1.15,2013-07-01 18:45:00,
2013-07-01 14:55:00,75.8,12.9,30.01,SSW,211,12.0,12.0,9,0.00,,,0.00,322,Wunderground v.1.15,2013-07-01 18:55:00,
2013-07-01 15:05:00,75.3,-5.1,30.01,South,190,12.0,13.0,4,0.00,,,0.00,454,Wunderground v.1.15,2013-07-01 19:05:00,
2013-07-01 15:15:00,75.1,-99.9,30.01,SSW,200,13.0,15.0,0,0.00,,,0.00,397,Wunderground v.1.15,2013-07-01 19:15:00,
2013-07-01 15:20:00,74.9,-99.9,30.01,SSW,200,11.0,11.0,0,0.00,,,0.00,510,Wunderground v.1.15,2013-07-01 19:20:00,
2013-07-01 15:30:00,75.0,-99.9,30.02,South,189,11.0,11.0,0,0.00,,,0.00,371,Wunderground v.1.15,2013-07-01 19:30:00,
2013-07-01 15:40:00,76.0,-99.9,30.02,South,189,11.0,11.0,0,0.00,,,0.00,846,Wunderground v.1.15,2013-07-01 19:40:00,
2013-07-01 15:45:00,76.5,-10.2,30.02,SW,215,11.0,11.0,3,0.00,,,0.00,538,Wunderground v.1.15,2013-07-01 19:45:00,
2013-07-01 15:55:00,76.0,10.4,30.02,South,189,10.0,12.0,8,0.00,,,0.00,272,Wunderground v.1.15,2013-07-01 19:55:00,
2013-07-01 16:05:00,75.4,-10.9,30.02,South,188,10.0,12.0,3,0.00,,,0.00,494,Wunderground v.1.15,2013-07-01 20:05:00,
2013-07-01 16:15:00,75.3,-99.9,30.02,SW,218,10.0,12.0,0,0.00,,,0.00,241,Wunderground v.1.15,2013-07-01 20:15:00,
2013-07-01 16:20:00,75.3,-99.9,30.01,South,187,9.0,9.0,0,0.00,,,0.00,91,Wunderground v.1.15,2013-07-01 20:20:00,
2013-07-01 16:30:00,74.6,-99.9,30.02,SSW,198,10.0,10.0,0,0.00,,,0.00,158,Wunderground v.1.15,2013-07-01 20:30:00,
2013-07-01 16:40:00,74.1,-99.9,30.02,SSW,193,10.0,10.0,0,0.00,,,0.00,214,Wunderground v.1.15,2013-07-01 20:40:00,
2013-07-01 16:45:00,73.8,-99.9,30.01,South,190,11.0,11.0,0,0.00,,,0.00,237,Wunderground v.1.15,2013-07-01 20:45:00,
2013-07-01 16:55:00,73.6,-99.9,30.01,South,190,10.0,11.0,0,0.00,,,0.00,279,Wunderground v.1.15,2013-07-01 20:55:00,
2013-07-01 17:05:00,73.7,-99.9,30.00,SSW,192,9.0,11.0,0,0.00,,,0.00,276,Wunderground v.1.15,2013-07-01 21:05:00,
2013-07-01 17:15:00,74.0,-99.9,30.00,South,178,11.0,11.0,0,0.00,,,0.00,251,Wunderground v.1.15,2013-07-01 21:15:00,
2013-07-01 17:25:00,74.3,-99.9,30.00,South,184,11.0,12.0,0,0.00,,,0.00,457,Wunderground v.1.15,2013-07-01 21:25:00,
2013-07-01 17:35:00,73.9,-99.9,30.01,South,177,14.0,15.0,0,0.00,,,0.00,213,Wunderground v.1.15,2013-07-01 21:35:00,
2013-07-01 17:40:00,73.7,-99.9,30.01,South,185,14.0,14.0,0,0.00,,,0.00,155,Wunderground v.1.15,2013-07-01 21:40:00,
2013-07-01 17:45:00,73.5,-99.9,30.01,South,180,13.0,15.0,0,0.00,,,0.00,144,Wunderground v.1.15,2013-07-01 21:45:00,
2013-07-01 17:55:00,73.1,-99.9,30.01,South,182,12.0,13.0,0,0.00,,,0.00,162,Wunderground v.1.15,2013-07-01 21:55:00,
2013-07-01 18:05:00,72.9,-99.9,30.01,South,186,12.0,12.0,0,0.00,,,0.00,195,Wunderground v.1.15,2013-07-01 22:05:00,
2013-07-01 18:10:00,72.9,-99.9,30.02,South,182,12.0,12.0,0,0.00,,,0.00,158,Wunderground v.1.15,2013-07-01 22:10:00,
2013-07-01 18:20:00,72.6,-99.9,30.02,SSW,196,11.0,11.0,0,0.00,,,0.00,91,Wunderground v.1.15,2013-07-01 22:20:00,
2013-07-01 18:30:00,72.3,-99.9,30.02,South,178,10.0,12.0,0,0.00,,,0.00,60,Wunderground v.1.15,2013-07-01 22:30:00,
2013-07-01 18:40:00,72.1,-99.9,30.02,South,190,10.0,10.0,0,0.00,,,0.00,113,Wunderground v.1.15,2013-07-01 22:40:00,
2013-07-01 18:50:00,72.2,-99.9,30.02,South,187,9.0,9.0,0,0.00,,,0.00,98,Wunderground v.1.15,2013-07-01 22:50:00,
2013-07-01 19:00:00,72.1,-99.9,30.03,South,191,10.0,10.0,0,0.00,,,0.00,63,Wunderground v.1.15,2013-07-01 23:00:00,
2013-07-01 19:10:00,72.1,-99.9,30.04,SSW,203,10.0,10.0,0,0.00,,,0.00,63,Wunderground v.1.15,2013-07-01 23:10:00,
2013-07-01 19:20:00,72.1,-99.9,30.04,South,190,10.0,10.0,0,0.00,,,0.00,30,Wunderground v.1.15,2013-07-01 23:20:00,
2013-07-01 19:30:00,72.0,-99.9,30.04,SSW,204,9.0,9.0,0,0.00,,,0.00,25,Wunderground v.1.15,2013-07-01 23:30:00,
2013-07-01 19:35:00,72.0,-99.9,30.05,SSW,213,8.0,11.0,0,0.00,,,0.00,23,Wunderground v.1.15,2013-07-01 23:35:00,
2013-07-01 19:45:00,71.9,-99.9,30.05,SW,217,9.0,11.0,0,0.00,,,0.00,14,Wunderground v.1.15,2013-07-01 23:45:00,
2013-07-01 19:55:00,72.0,-99.9,30.05,SSW,198,10.0,11.0,0,0.00,,,0.00,16,Wunderground v.1.15,2013-07-01 23:55:00,
2013-07-01 20:00:00,72.0,-99.9,30.05,NNW,331,10.0,12.0,0,0.00,,,0.00,14,Wunderground v.1.15,2013-07-02 00:00:00,
2013-07-01 20:10:00,72.1,-99.9,30.06,SW,214,11.0,11.0,0,0.00,,,0.00,0,Wunderground v.1.15,2013-07-02 00:10:00,
2013-07-01 20:20:00,72.1,-99.9,30.06,SSW,204,11.0,11.0,0,0.00,,,0.00,0,Wunderground v.1.15,2013-07-02 00:20:00,
2013-07-01 20:30:00,72.2,-99.9,30.05,SSW,213,10.0,10.0,0,0.00,,,0.00,0,Wunderground v.1.15,2013-07-02 00:30:00,
2013-07-01 20:35:00,72.2,-99.9,30.06,South,184,9.0,10.0,0,0.00,,,0.00,0,Wunderground v.1.15,2013-07-02 00:35:00,
2013-07-01 20:45:00,72.1,-99.9,30.06,South,189,8.0,8.0,0,0.00,,,0.00,0,Wunderground v.1.15,2013-07-02 00:45:00,
2013-07-01 20:50:00,72.1,-99.9,30.06,SSW,202,8.0,8.0,0,0.00,,,0.00,0,Wunderground v.1.15,2013-07-02 00:50:00,
2013-07-01 20:55:00,72.1,-99.9,30.06,SSW,194,8.0,8.0,0,0.00,,,0.00,0,Wunderground v.1.15,2013-07-02 00:55:00,
2013-07-01 21:05:00,72.0,-99.9,30.06,SSW,194,9.0,11.0,0,0.00,,,0.00,0,Wunderground v.1.15,2013-07-02 01:05:00,
2013-07-01 21:10:00,71.9,-99.9,30.07,South,186,10.0,12.0,0,0.00,,,0.00,0,Wunderground v.1.15,2013-07-02 01:10:00,
2013-07-01 21:20:00,71.8,-99.9,30.07,SSW,208,10.0,11.0,0,0.00,,,0.00,0,Wunderground v.1.15,2013-07-02 01:20:00,
2013-07-01 21:30:00,71.7,-99.9,30.07,South,189,10.0,10.0,0,0.00,,,0.00,0,Wunderground v.1.15,2013-07-02 01:30:00,
2013-07-01 21:40:00,71.6,-99.9,30.08,South,189,10.0,10.0,0,0.00,,,0.00,0,Wunderground v.1.15,2013-07-02 01:40:00,
2013-07-01 21:50:00,71.6,-99.9,30.08,SSW,197,9.0,9.0,0,0.00,,,0.00,0,Wunderground v.1.15,2013-07-02 01:50:00,
2013-07-01 21:55:00,71.6,-99.9,30.08,South,180,8.0,9.0,0,0.00,,,0.00,0,Wunderground v.1.15,2013-07-02 01:55:00,
2013-07-01 22:05:00,71.5,-99.9,30.08,South,185,7.0,8.0,0,0.00,,,0.00,0,Wunderground v.1.15,2013-07-02 02:05:00,
2013-07-01 22:10:00,71.4,-99.9,30.08,SSW,207,6.0,6.0,0,0.00,,,0.00,0,Wunderground v.1.15,2013-07-02 02:10:00,
2013-07-01 22:15:00,71.5,-99.9,30.07,SSW,213,6.0,6.0,0,0.00,,,0.00,0,Wunderground v.1.15,2013-07-02 02:15:00,
2013-07-01 22:25:00,71.3,-99.9,30.08,SSW,205,7.0,10.0,0,0.00,,,0.00,0,Wunderground v.1.15,2013-07-02 02:25:00,
2013-07-01 22:30:00,71.3,-99.9,30.08,SW,217,6.0,6.0,0,0.00,,,0.00,0,Wunderground v.1.15,2013-07-02 02:30:00,
2013-07-01 22:35:00,71.2,-99.9,30.08,SSW,198,5.0,6.0,0,0.00,,,0.00,0,Wunderground v.1.15,2013-07-02 02:35:00,
2013-07-01 22:45:00,71.2,-99.9,30.08,SSW,213,5.0,5.0,0,0.00,,,0.00,0,Wunderground v.1.15,2013-07-02 02:45:00,
2013-07-01 22:55:00,71.1,-99.9,30.08,SSW,197,5.0,6.0,0,0.00,,,0.00,0,Wunderground v.1.15,2013-07-02 02:55:00,
2013-07-01 23:05:00,71.0,-99.9,30.08,South,189,5.0,6.0,0,0.00,,,0.00,0,Wunderground v.1.15,2013-07-02 03:05:00,
2013-07-01 23:15:00,70.9,-99.9,30.08,SSW,206,4.0,5.0,0,0.00,,,0.00,0,Wunderground v.1.15,2013-07-02 03:15:00,
2013-07-01 23:20:00,70.9,-99.9,30.08,SSW,207,5.0,5.0,0,0.00,,,0.00,0,Wunderground v.1.15,2013-07-02 03:20:00,
2013-07-01 23:25:00,71.1,-99.9,30.08,SSW,203,5.0,6.0,0,0.00,,,0.00,0,Wunderground v.1.15,2013-07-02 03:25:00,
2013-07-01 23:35:00,71.2,-99.9,30.08,SSW,206,6.0,7.0,0,0.00,,,0.00,0,Wunderground v.1.15,2013-07-02 03:35:00,
2013-07-01 23:45:00,71.3,-99.9,30.08,SSW,193,6.0,6.0,0,0.00,,,0.00,0,Wunderground v.1.15,2013-07-02 03:45:00,
2013-07-01 23:55:00,71.1,-99.9,30.08,South,191,6.0,6.0,0,0.00,,,0.00,0,Wunderground v.1.15,2013-07-02 03:55:00,